User: anonymous   Login
Location: Newark
(34.5992°S, 58.3747°W)
Time: 13:18:30
(UTC+00:00)
Language:

STARLINK-1026 - Orbit

View from above orbital plane
View from above orbital plane
View from above satellite
View from above satellite

Ground track
Ground track

The orbit data is extracted from the following two-line orbital elements,

1 44731U 19074U   20053.25001157 -.00058544  00000-0 -85832-3 0  9998
2 44731  53.0091  20.6830 0001021  72.5325  18.5282 15.54957247 16165
Epoch (UTC): 22 February 2020 06:00:01
Eccentricity: 0.0001021
inclination: 53.0091°
perigee height: 401 km
apogee height: 403 km
right ascension of ascending node: 20.6830°
argument of perigee: 72.5325°
revolutions per day: 15.54957247
mean anomaly at epoch: 18.5282°
orbit number at epoch: 1616

The dashed part of the orbit path shows where the satellite is in the earth's shadow,  

DLR